Orbital Elements at Epoch 2459200.5 (2020-Dec-17.0) TDB
Reference: JPL 19 (heliocentric ecliptic J2000)
Element | Value | Uncertainty (1-sigma) | Units |
e | .09868884404487702 | 3.8971e-08 | |
a | 2.807826566769374 | 1.3645e-08 | au |
q | 2.530725408616409 | 1.083e-07 | au |
i | .4140686390858971 | 4.2671e-06 | deg |
node | 15.19891996115295 | 0.00055652 | deg |
peri | 358.9548746461215 | 0.00055693 | deg |
M | 46.36294159785198 | 2.0771e-05 | deg |
tp | 2458979.179151091977 (2020-May-09.67915109) | 9.9263e-05 | TDB |
period | 1718.517049629563 4.71 | 1.2527e-05 3.43e-08 | d yr |
n | .2094829376744329 | 1.527e-09 | deg/d |
Q | 3.084927724922339 | 1.4991e-08 | au |
|
| | Orbit Determination Parameters
Additional Information
|